Location: Kawakawa
(35.3830°S, 174.0670°E)
Time: 04:12:29
(UTC+13:00)

Envisat - Pass Details

Date: 24 November 2019
Orbit: 764 x 766 km, 98.1° (Epoch: 09 December)

Event Time Altitude Azimuth Distance (km) Brightness Sun altitude
Rises 21:45:48 0° 193° (SSW) 3,268 7.2 -16.0°
Reaches altitude 10° 21:49:57 10° 226° (SW) 2,330 6.8 -16.7°
Maximum altitude 21:51:25 11° 242° (WSW) 2,242 6.6 -16.9°
Drops below altitude 10° 21:52:53 10° 259° (W) 2,322 6.4 -17.1°
Sets 21:57:00 0° 292° (WNW) 3,237 6.6 -17.7°
